Frederick, MD

5:17 PM EST on January 21, 2017 (GMT -0500)
Frederick

Weather History for KFDK - November, 2012

Change the Weather History Date:

Monday, November 5, 2012

  Actual Average (KHGR) Record (KHGR)
Temperature  
Mean Temperature 39 °F -  
Max Temperature 50 °F 54 °F 77 °F (2015)
Min Temperature 28 °F 38 °F 23 °F (1998)
Degree Days  
Heating Degree Days 26    
Moisture  
Dew Point 30 °F    
Average Humidity 75    
Maximum Humidity 100    
Minimum Humidity 47    
Precipitation  
Precipitation 0.00 in - - ()
Sea Level Pressure  
Sea Level Pressure 30.13 in    
Wind  
Wind Speed 6 mph (NNW)    
Max Wind Speed 12 mph    
Max Gust Speed 17 mph    
Visibility 10 miles    
Events      
Averages and records for this station are not official NWS values.
T = Trace of Precipitation, MM = Missing Value Source: NWS Daily Summary

Daily Weather History Graph

Daily Weather History Graph

Search for Another Location

Airport or City:

Trip Planner

Search our weather history database for the weather conditions in past years. The results will help you decide how hot, cold, wet, or windy it might be!

Date:

Astronomy

Nov. 05, 2012 Rise Set
Actual Time 6:42 AM EST 5:03 PM EST
Civil Twilight 6:14 AM EST 5:31 PM EST
Nautical Twilight 5:42 AM EST 6:03 PM EST
Astronomical Twilight 5:11 AM EST 6:34 PM EST
Moon 10:38 PM EST (11/5) 12:00 PM EST (11/5)
Length of Visible Light 11h 16m
Length of Day
10h 20m
Waning Gibbous, 63% of the Moon is Illuminated
Nov 5
Waning Gibbous
Nov 6
Last Quarter
Nov 13
New
Nov 20
First Quarter
Nov 28
Full

Hourly Weather History & Observations

Time (EST) Temp. Windchill Dew Point Humidity Pressure Visibility Wind Dir Wind Speed Gust Speed Precip Events Conditions
12:10 AM 41.0 °F 38.0 °F 32.0 °F 70% 30.08 in 10.0 mi NW 4.6 mph - N/A   Overcast
12:15 AM 41.0 °F 38.0 °F 32.0 °F 70% 30.08 in 10.0 mi NNW 4.6 mph - N/A   Overcast
12:35 AM 41.0 °F 38.0 °F 32.0 °F 70% 30.08 in 10.0 mi NNW 4.6 mph - N/A   Overcast
12:55 AM 41.0 °F 37.1 °F 32.0 °F 70% 30.08 in 10.0 mi NNW 5.8 mph - N/A   Overcast
1:15 AM 41.0 °F 36.4 °F 32.0 °F 70% 30.07 in 10.0 mi NW 6.9 mph - N/A   Overcast
1:40 AM 39.2 °F 33.6 °F 30.2 °F 70% 30.08 in 10.0 mi NW 8.1 mph - N/A   Overcast
2:00 AM 39.2 °F 33.6 °F 30.2 °F 70% 30.07 in 10.0 mi NW 8.1 mph - N/A   Overcast
2:20 AM 39.2 °F 35.0 °F 30.2 °F 70% 30.08 in 10.0 mi NW 5.8 mph - N/A   Overcast
2:40 AM 39.2 °F 35.0 °F 30.2 °F 70% 30.08 in 10.0 mi NW 5.8 mph - N/A   Overcast
3:05 AM 37.4 °F 32.8 °F 30.2 °F 75% 30.08 in 10.0 mi NW 5.8 mph - N/A   Overcast
3:25 AM 37.4 °F 32.8 °F 30.2 °F 75% 30.08 in 10.0 mi NW 5.8 mph - N/A   Overcast
3:45 AM 37.4 °F 32.8 °F 30.2 °F 75% 30.08 in 10.0 mi WNW 5.8 mph - N/A   Overcast
4:05 AM 37.4 °F 32.1 °F 30.2 °F 75% 30.08 in 10.0 mi WNW 6.9 mph - N/A   Overcast
4:30 AM 37.4 °F 31.4 °F 30.2 °F 75% 30.09 in 10.0 mi NW 8.1 mph - N/A   Overcast
4:50 AM 37.4 °F 31.4 °F 30.2 °F 75% 30.09 in 10.0 mi NW 8.1 mph - N/A   Overcast
5:10 AM 37.4 °F 32.1 °F 30.2 °F 75% 30.10 in 10.0 mi NW 6.9 mph - N/A   Overcast
5:30 AM 37.4 °F 31.4 °F 30.2 °F 75% 30.10 in 10.0 mi NW 8.1 mph - N/A   Overcast
5:50 AM 37.4 °F 30.3 °F 30.2 °F 75% 30.10 in 10.0 mi NNW 10.4 mph - N/A   Overcast
6:48 AM 39.2 °F 33.0 °F 28.4 °F 65% 30.11 in 10.0 mi North 9.2 mph 16.1 mph N/A   Overcast
7:47 AM 39.2 °F 33.0 °F 28.4 °F 65% 30.14 in 10.0 mi North 9.2 mph - N/A   Overcast
8:55 AM 41.0 °F 34.3 °F 35.6 °F 81% 30.14 in 10.0 mi North 11.5 mph 17.3 mph N/A   Overcast
9:51 AM 42.8 °F 37.5 °F 28.4 °F 57% 30.15 in 10.0 mi NE 9.2 mph - N/A   Mostly Cloudy
10:49 AM 46.4 °F 41.5 °F 28.4 °F 50% 30.14 in 10.0 mi North 10.4 mph - N/A   Clear
11:50 AM 48.2 °F - 30.2 °F 50% 30.13 in 10.0 mi North 5.8 mph - N/A   Scattered Clouds
12:59 PM 48.2 °F - 30.2 °F 50% 30.11 in 10.0 mi NNE 6.9 mph 16.1 mph N/A   Scattered Clouds
1:50 PM 48.2 °F - 30.2 °F 50% 30.10 in 10.0 mi NNW 9.2 mph - N/A   Clear
2:45 PM 50.0 °F - 30.2 °F 47% 30.10 in 10.0 mi North 9.2 mph - N/A   Clear
4:55 PM 44.6 °F 43.1 °F 28.4 °F 53% 30.12 in 10.0 mi North 3.5 mph - N/A   Clear
5:47 PM 41.0 °F 36.4 °F 28.4 °F 61% 30.13 in 10.0 mi North 6.9 mph - N/A   Clear
6:49 PM 35.6 °F 31.7 °F 28.4 °F 75% 30.16 in 10.0 mi NE 4.6 mph - N/A   Clear
7:50 PM 33.8 °F - 28.4 °F 81% 30.18 in 10.0 mi Calm Calm - N/A   Clear
8:05 PM 32.0 °F 28.7 °F 28.4 °F 87% 30.18 in 10.0 mi North 3.5 mph - N/A   Clear
8:25 PM 32.0 °F - 30.2 °F 93% 30.19 in 10.0 mi Calm Calm - N/A   Clear
9:30 PM 30.2 °F 25.4 °F 28.4 °F 93% 30.21 in 10.0 mi ENE 4.6 mph - N/A   Scattered Clouds
9:50 PM 28.4 °F - 28.4 °F 100% 30.21 in 10.0 mi Calm Calm - N/A   Scattered Clouds
10:10 PM 28.4 °F - 28.4 °F 100% 30.21 in 10.0 mi Calm Calm - N/A   Clear
10:30 PM 28.4 °F - 28.4 °F 100% 30.22 in 10.0 mi Calm Calm - N/A   Clear
10:55 PM 28.4 °F - 28.4 °F 100% 30.22 in 10.0 mi Calm Calm - N/A   Clear
11:15 PM 28.4 °F - 28.4 °F 100% 30.22 in 10.0 mi Calm Calm - N/A   Clear
11:35 PM 30.2 °F - 30.2 °F 100% 30.22 in 10.0 mi Calm Calm - N/A   Clear
11:55 PM 28.4 °F - 28.4 °F 100% 30.22 in 10.0 mi Calm Calm - N/A   Clear